Find Local Weather

World > North America > United States > New Jersey

Fairfield, New Jersey Regional Weather

Lat: 40.88N, Lon: 74.31W
Wx Zone: NJZ105
Feedback
Expires:201807181700;;672531
ASUS41 KOKX 181605
RWROKX

Regional Weather Roundup
National Weather Service New York NY
1200 PM EDT WED JUL 18 2018

Note: "FAIR" indicates few or no clouds below 12,000 feet with no
significant weather and/or obstructions to visibility.


NJZ001-105-106-008-010-013-015-019>022-104-181700-
New Jersey
  
CITY           SKY/WX    TMP DP  RH WIND       PRES   REMARKS
Newark/Liberty FAIR      82  59  45 N10       29.89F                  
Teterboro      FAIR      82  59  45 NE9G16    29.89S                  
Caldwell       FAIR      80  60  50 N9        29.92S                  
Somerville     FAIR      82  59  45 N8G20     29.90                   
Linden         NOT AVBL                                               
Perth Amboy      N/A     79 N/A N/A N13G18      N/A                   
Sussex         PTSUNNY   78  61  55 N9        29.94S                  
Andover          N/A     79  62  56 NW7       29.95S                  
Trenton        FAIR      81  63  54 N9        29.92S                  
Millville      FAIR      82  62  50 NW7       29.91S                  
Atlantic City  FAIR      83  63  50 N8G18     29.90S                  
Wrightstown    FAIR      81  63  53 N9        29.89S                  
Toms River     PTSUNNY   80  64  58 N12G17    29.91S                  
Belmar         FAIR      80  62  54 N12G17    29.91F                  
$$
 

SKY/WX - Weather  TMP - Temperature  DP - Dewpoint  RH - Relative Humidity
WIND - Wind Direction/Speed PRES - Barometric Pressure